• Processing (Info)

  • MPEC 2015-V142: 2015 VJ105

    The following Minor Planet Electronic Circular may be linked-to from your own Web pages, but must not otherwise be redistributed electronically.

    A form allowing access to any MPEC is at the bottom of this page.


    Read MPEC 2015-V141 Read MPEC 2015-V143


    M.P.E.C. 2015-V142                               Issued 2015 Nov. 13, 14:07 UT
    
         The Minor Planet Electronic Circulars contain information on unusual
             minor planets and routine data on comets.  They are published
        on behalf of Division F of the International Astronomical Union by the
              Minor Planet Center, Smithsonian Astrophysical Observatory,
                              Cambridge, MA 02138, U.S.A.
    
                 Prepared using the Tamkin Foundation Computer Network
    
                                  MPC@CFA.HARVARD.EDU
                URL https://www.minorplanetcenter.net/    ISSN 1523-6714
    
                                      2015 VJ105
    
    Observations:
         K15VA5J* C2015 11 09.27624 02 33 17.58 +41 10 15.2          20.6 VqEV142G96
         K15VA5J  C2015 11 09.28294 02 33 16.84 +41 09 26.9          21.5 VqEV142G96
         K15VA5J  C2015 11 09.28964 02 33 16.11 +41 08 39.5          21.7 VqEV142G96
         K15VA5J  C2015 11 09.33949 02 33 10.89 +41 02 42.3          21.4 VqEV142G96
         K15VA5J  C2015 11 09.34520 02 33 10.34 +41 02 01.1          21.5 VqEV142G96
         K15VA5J  C2015 11 09.35092 02 33 09.69 +41 01 20.2          22.2 VqEV142G96
         K15VA5J  C2015 11 09.35667 02 33 09.12 +41 00 38.6          21.1 VqEV142G96
         K15VA5J KC2015 11 09.43410 02 33 01.34 +40 51 22.5          20.6 RoEV142291
         K15VA5J KC2015 11 09.43635 02 33 01.22 +40 51 08.0          20.9 RoEV142291
         K15VA5J KC2015 11 09.43860 02 33 00.89 +40 50 50.3                oEV142291
         K15VA5J  C2015 11 10.29661 02 31 49.39 +39 10 46.8          22.4 VqEV142G96
         K15VA5J  C2015 11 10.30407 02 31 48.65 +39 09 54.8          21.9 VqEV142G96
         K15VA5J  C2015 11 10.31140 02 31 47.98 +39 09 04.3          21.4 VqEV142G96
         K15VA5J  C2015 11 10.31867 02 31 47.28 +39 08 14.3          21.7 VqEV142G96
         K15VA5J  C2015 11 12.26668 02 29 25.56 +35 32 12.5          21.2 RoEV142926
         K15VA5J  C2015 11 12.27453 02 29 24.98 +35 31 23.3          21.5 RoEV142926
         K15VA5J  C2015 11 12.28234 02 29 24.39 +35 30 32.8          21.1 RoEV142926
         K15VA5J  C2015 11 13.26908 02 28 23.50 +33 47 20.1                qEV142G96
         K15VA5J  C2015 11 13.26958 02 28 23.54 +33 47 16.6          21.8 VqEV142G96
         K15VA5J  C2015 11 13.27008 02 28 23.51 +33 47 13.3                qEV142G96
    
    Observer details:
    291 LPL/Spacewatch II.  Observers R. S. McMillan, M. T. Read.  Measurer
        M. T. Read.  1.8-m f/2.7 reflector + CCD.
    926 Tenagra II Observatory.  Observers M. Schwartz, P. R. Holvorcem.  Measurer
        M. Schwartz.  0.81-m f/7 Ritchey-Chretien + CCD.
    G96 Mt. Lemmon Survey.  Observers D. C. Fuls, A. R. Gibbs.  Measurers
        E. J. Christensen, D. C. Fuls, A. R. Gibbs, A. D. Grauer, R. E. Hill,
        J. A. Johnson, R. A. Kowalski, S. M. Larson, R. G. Matheny, F. C. Shelly.
        1.5-m reflector + CCD.
    
    Orbital elements:
    2015 VJ105                                               Earth MOID = 0.0614 AU
    Epoch 2016 Jan. 13.0 TT = JDT 2457400.5                 MPC
    M  72.68657              (2000.0)            P               Q
    n   0.50439791     Peri.   66.55402     +0.48055988     +0.78884146
    a   1.5629816      Node   237.82520     -0.87385425     +0.46748692
    e   0.5291215      Incl.   26.91370     +0.07376276     +0.39898012
    P   1.95           H   22.8           G   0.15           U   9
    Residuals in seconds of arc
    151109 G96  0.4+  0.2+    151109 291  0.3-  0.5-    151112 926  0.7-  0.6-
    151109 G96  0.0   0.3-    151109 291  0.9+  1.2+    151112 926  0.3-  0.5+
    151109 G96  0.2-  0.2+    151109 291  0.4-  0.3-    151112 926  0.1-  0.0
    151109 G96  0.2-  0.1-    151110 G96  0.2+  0.1+    151113 G96  0.4-  0.4+
    151109 G96  0.2+  0.3-    151110 G96  0.1-  0.3-    151113 G96  0.5+  0.1-
    151109 G96  0.4-  0.2-    151110 G96  0.2+  0.1-    151113 G96  0.6+  0.3-
    151109 G96  0.2-  0.5-    151110 G96  0.0   0.3+
    
    Ephemeris:
    2015 VJ105               a,e,i = 1.56, 0.53, 27                  q = 0.7360
    Date    TT    R. A. (2000) Decl.     Delta      r     Elong.  Phase     V
    2015 10 14    11 35 53.2 +79 53 33   0.2865  1.0315    88.7    75.2    22.8
    ...
    2015 10 29    03 10 00.3 +66 11 32   0.2518  1.1598   126.1    43.8    21.8
    ...
    2015 11 06    02 39 17.1 +47 59 44   0.2697  1.2280   147.7    25.5    21.6
    ...
    2015 11 12    02 29 43.3 +36 00 54   0.3029  1.2785   159.8    15.5    21.6
    2015 11 13    02 28 39.6 +34 15 07   0.3099  1.2868   161.0    14.5    21.6
    2015 11 14    02 27 42.7 +32 33 40   0.3174  1.2952   162.0    13.6    21.7
    ...
    2015 11 20    02 23 57.5 +23 53 45   0.3696  1.3446   162.0    13.1    22.0
    ...
    2015 11 28    02 22 38.3 +15 47 45   0.4560  1.4090   153.3    18.3    22.8
    ...
    2015 12 13    02 27 05.6 +07 38 02   0.6534  1.5245   136.1    26.6    24.0
    
    A. U. Tomatic                (C) Copyright 2015 MPC           M.P.E.C. 2015-V142
    

    Read MPEC 2015-V141 Read MPEC 2015-V143


    MPEC number:

    Enter an MPEC number in one of the following forms:

    • 1997-B01 (the full form)
    • J97B01 (the packed version of the full form)
    • B01 (the abbreviated form)